• en Belgique
  • Liste des pays
  • À 7 jours
  • Température de l'eau
  • Carte satellitaire
  • Carte météo
  • Widgets météo
  • user-avatar
    Se connecter

    Météo par heure à Begijnendijk

    Ce jour, 19 Février, Lundi

    Heure Température Précipitation Vent Pression Humidité
    00:00 -1°C° 0 mm 2 m/s 765 mmHg 78%
    01:00 -1°C° 0 mm 2 m/s 765 mmHg 77%
    02:00 -1°C° 0 mm 2 m/s 765 mmHg 76%
    03:00 -1°C° 0 mm 2 m/s 764 mmHg 75%
    04:00 -1°C° 0 mm 2 m/s 764 mmHg 74%
    05:00 -1°C° 0 mm 2 m/s 764 mmHg 73%
    06:00 +1°C° 0 mm 2 m/s 764 mmHg 72%
    07:00 0°C° 0 mm 3 m/s 763 mmHg 69%
    08:00 +1°C° 0 mm 3 m/s 763 mmHg 66%
    09:00 +2°C° 0 mm 3 m/s 763 mmHg 63%
    10:00 +3°C° 0 mm 3 m/s 762 mmHg 61%
    11:00 +5°C° 0 mm 2 m/s 762 mmHg 58%
    12:00 +5°C° 0 mm 2 m/s 762 mmHg 56%
    13:00 +6°C° 0 mm 2 m/s 762 mmHg 57%
    14:00 +6°C° 0 mm 2 m/s 761 mmHg 58%
    15:00 +7°C° 0 mm 1 m/s 761 mmHg 59%
    16:00 +5°C° 0,1 mm 2 m/s 761 mmHg 63%
    17:00 +5°C° 0,1 mm 2 m/s 761 mmHg 66%
    18:00 +4°C° 0,1 mm 2 m/s 761 mmHg 70%
    19:00 +4°C° 0,1 mm 2 m/s 761 mmHg 71%
    20:00 +4°C° 0,1 mm 2 m/s 761 mmHg 72%
    21:00 +3°C° 0,1 mm 2 m/s 761 mmHg 73%
    22:00 +3°C° 0 mm 2 m/s 761 mmHg 74%
    23:00 +3°C° 0 mm 2 m/s 761 mmHg 74%

    Demain, 20 Février, Mardi

    Heure Température Précipitation Vent Pression Humidité
    00:00 +3°C° 0 mm 2 m/s 761 mmHg 75%
    01:00 +2°C° 0 mm 2 m/s 761 mmHg 76%
    02:00 +3°C° 0 mm 1 m/s 761 mmHg 77%
    03:00 +2°C° 0 mm 1 m/s 761 mmHg 78%
    04:00 +1°C° 0 mm 2 m/s 761 mmHg 77%
    05:00 +1°C° 0 mm 2 m/s 761 mmHg 77%
    06:00 -1°C° 0 mm 2 m/s 761 mmHg 77%
    07:00 +1°C° 0 mm 2 m/s 761 mmHg 73%
    08:00 +2°C° 0 mm 2 m/s 762 mmHg 70%
    09:00 +3°C° 0 mm 2 m/s 762 mmHg 66%
    10:00 +4°C° 0 mm 2 m/s 762 mmHg 61%
    11:00 +5°C° 0 mm 2 m/s 762 mmHg 57%
    12:00 +6°C° 0 mm 2 m/s 762 mmHg 53%
    13:00 +6°C° 0 mm 2 m/s 762 mmHg 53%
    14:00 +6°C° 0 mm 2 m/s 762 mmHg 53%
    15:00 +5°C° 0 mm 3 m/s 762 mmHg 53%
    16:00 +4°C° 0 mm 3 m/s 762 mmHg 58%
    17:00 +3°C° 0 mm 3 m/s 763 mmHg 62%
    18:00 +2°C° 0 mm 3 m/s 763 mmHg 66%
    19:00 +1°C° 0 mm 3 m/s 764 mmHg 68%
    20:00 +1°C° 0 mm 3 m/s 764 mmHg 70%
    21:00 0°C° 0 mm 3 m/s 765 mmHg 71%
    22:00 0°C° 0 mm 3 m/s 765 mmHg 73%
    23:00 -1°C° 0 mm 3 m/s 766 mmHg 75%

    Après-demain, 21 Février, Mercredi

    Heure Température Précipitation Vent Pression Humidité
    00:00 -1°C° 0 mm 3 m/s 766 mmHg 76%
    01:00 -1°C° 0 mm 3 m/s 766 mmHg 77%
    02:00 -2°C° 0 mm 3 m/s 766 mmHg 78%
    03:00 -2°C° 0 mm 2 m/s 766 mmHg 80%
    04:00 -2°C° 0 mm 2 m/s 767 mmHg 80%
    05:00 -2°C° 0 mm 3 m/s 767 mmHg 81%
    06:00 -2°C° 0 mm 3 m/s 767 mmHg 81%
    07:00 -1°C° 0 mm 3 m/s 767 mmHg 76%
    08:00 0°C° 0 mm 3 m/s 767 mmHg 71%
    09:00 +1°C° 0 mm 3 m/s 768 mmHg 66%
    10:00 +2°C° 0 mm 3 m/s 767 mmHg 60%
    11:00 +3°C° 0 mm 3 m/s 767 mmHg 55%
    12:00 +4°C° 0 mm 4 m/s 767 mmHg 49%
    13:00 +4°C° 0 mm 4 m/s 766 mmHg 49%
    14:00 +4°C° 0 mm 4 m/s 766 mmHg 49%
    15:00 +4°C° 0 mm 4 m/s 766 mmHg 49%
    16:00 +3°C° 0 mm 4 m/s 766 mmHg 55%
    17:00 +2°C° 0 mm 3 m/s 766 mmHg 60%
    18:00 0°C° 0 mm 3 m/s 766 mmHg 66%
    19:00 0°C° 0 mm 3 m/s 766 mmHg 68%
    20:00 -1°C° 0 mm 3 m/s 766 mmHg 69%
    21:00 -1°C° 0 mm 3 m/s 766 mmHg 71%
    22:00 -1°C° 0 mm 3 m/s 766 mmHg 72%
    23:00 -2°C° 0 mm 3 m/s 766 mmHg 72%

    22 Février, Jeudi

    Heure Température Précipitation Vent Pression Humidité
    00:00 -2°C° 0 mm 3 m/s 766 mmHg 73%
    01:00 -2°C° 0 mm 3 m/s 765 mmHg 73%
    02:00 -2°C° 0 mm 3 m/s 765 mmHg 74%
    03:00 -3°C° 0 mm 4 m/s 765 mmHg 74%
    04:00 -3°C° 0 mm 4 m/s 765 mmHg 74%
    05:00 -3°C° 0 mm 4 m/s 765 mmHg 74%
    06:00 -3°C° 0 mm 4 m/s 765 mmHg 74%
    07:00 -2°C° 0 mm 5 m/s 765 mmHg 69%
    08:00 -1°C° 0 mm 5 m/s 765 mmHg 65%
    09:00 -2°C° 0 mm 6 m/s 765 mmHg 60%
    10:00 +1°C° 0 mm 6 m/s 765 mmHg 54%
    11:00 +2°C° 0 mm 7 m/s 765 mmHg 49%
    12:00 +3°C° 0 mm 7 m/s 764 mmHg 43%
    13:00 +3°C° 0 mm 7 m/s 764 mmHg 42%
    14:00 +3°C° 0 mm 7 m/s 764 mmHg 41%
    15:00 +3°C° 0 mm 7 m/s 764 mmHg 41%
    16:00 +1°C° 0 mm 6 m/s 764 mmHg 45%
    17:00 -1°C° 0 mm 6 m/s 764 mmHg 50%
    18:00 -1°C° 0 mm 5 m/s 764 mmHg 55%
    19:00 -1°C° 0 mm 5 m/s 764 mmHg 58%
    20:00 -2°C° 0 mm 5 m/s 765 mmHg 60%
    21:00 -2°C° 0 mm 5 m/s 765 mmHg 63%
    22:00 -2°C° 0 mm 5 m/s 765 mmHg 65%
    23:00 -4°C° 0 mm 5 m/s 765 mmHg 67%

    23 Février, Vendredi

    Heure Température Précipitation Vent Pression Humidité
    00:00 -4°C° 0 mm 5 m/s 765 mmHg 70%
    01:00 -4°C° 0 mm 5 m/s 765 mmHg 71%
    02:00 -4°C° 0 mm 5 m/s 764 mmHg 73%
    03:00 -4°C° 0 mm 5 m/s 764 mmHg 75%
    04:00 -4°C° 0 mm 5 m/s 764 mmHg 74%
    05:00 -5°C° 0 mm 6 m/s 764 mmHg 73%
    06:00 -5°C° 0 mm 6 m/s 764 mmHg 73%
    07:00 -4°C° 0 mm 6 m/s 765 mmHg 66%
    08:00 -3°C° 0 mm 7 m/s 765 mmHg 59%
    09:00 -3°C° 0 mm 7 m/s 765 mmHg 53%
    10:00 -2°C° 0 mm 7 m/s 765 mmHg 48%
    11:00 -1°C° 0 mm 7 m/s 765 mmHg 43%
    12:00 0°C° 0 mm 7 m/s 765 mmHg 38%
    13:00 0°C° 0 mm 7 m/s 764 mmHg 38%
    14:00 0°C° 0 mm 7 m/s 764 mmHg 38%
    15:00 +2°C° 0 mm 7 m/s 764 mmHg 38%
    16:00 0°C° 0 mm 7 m/s 764 mmHg 41%
    17:00 -1°C° 0 mm 6 m/s 765 mmHg 45%
    18:00 -3°C° 0 mm 6 m/s 765 mmHg 48%
    19:00 -3°C° 0 mm 6 m/s 765 mmHg 50%
    20:00 -3°C° 0 mm 6 m/s 766 mmHg 52%
    21:00 -4°C° 0 mm 6 m/s 766 mmHg 54%
    22:00 -4°C° 0 mm 6 m/s 767 mmHg 53%
    23:00 -4°C° 0 mm 5 m/s 767 mmHg 53%

    24 Février, Samedi

    Heure Température Précipitation Vent Pression Humidité
    00:00 -5°C° 0 mm 5 m/s 767 mmHg 52%
    01:00 -5°C° 0 mm 5 m/s 767 mmHg 50%
    02:00 -5°C° 0 mm 5 m/s 767 mmHg 48%
    03:00 -5°C° 0 mm 5 m/s 767 mmHg 46%
    04:00 -5°C° 0 mm 6 m/s 768 mmHg 44%
    05:00 -5°C° 0 mm 6 m/s 768 mmHg 42%
    06:00 -5°C° 0 mm 6 m/s 768 mmHg 40%
    07:00 -4°C° 0 mm 6 m/s 768 mmHg 36%
    08:00 -4°C° 0 mm 7 m/s 769 mmHg 32%
    09:00 -3°C° 0 mm 7 m/s 769 mmHg 29%
    10:00 -2°C° 0 mm 7 m/s 769 mmHg 28%
    11:00 -1°C° 0 mm 7 m/s 769 mmHg 28%
    12:00 0°C° 0 mm 7 m/s 769 mmHg 28%
    13:00 0°C° 0 mm 7 m/s 769 mmHg 29%
    14:00 +2°C° 0 mm 7 m/s 769 mmHg 30%
    15:00 +2°C° 0 mm 7 m/s 768 mmHg 32%
    16:00 0°C° 0 mm 7 m/s 769 mmHg 35%
    17:00 -2°C° 0 mm 6 m/s 769 mmHg 38%
    18:00 -3°C° 0 mm 6 m/s 769 mmHg 41%
    19:00 -3°C° 0 mm 6 m/s 770 mmHg 43%
    20:00 -4°C° 0 mm 6 m/s 770 mmHg 45%
    21:00 -4°C° 0 mm 6 m/s 770 mmHg 47%
    22:00 -4°C° 0 mm 6 m/s 770 mmHg 50%
    23:00 -5°C° 0 mm 6 m/s 770 mmHg 52%
    Voir plus